QPF
0.02 0.02 0.01 0.01 0.01 0.01 0.01 0.01 0.01 0.01 0.01 0.01 0.01 0.01 0.02 0.01 0.01 0.01 0.01 0.01 0.01 0.01 0.01 0.01 0.01 0.01 0.01 0.01 0.01 0.00 0.01 0.01 0.01 0.01 0.02 0.02 0.02 0.02 0.03 0.03 0.03 0.02 0.02 0.01
0.02 0.01 0.00 0.00 0.00 0.01 0.01 0.01 0.01 0.01 0.01 0.01 0.01 0.01 0.02 0.01 0.01 0.01 0.02 0.01 0.01 0.01 0.01 0.01 0.01 0.01 0.01 0.01 0.01 0.01 0.01 0.01 0.01 0.01 0.01 0.01 0.01 0.02 0.02 0.03 0.04 0.04 0.03 0.02
0.02 0.01 0.00 0.00 0.01 0.01 0.01 0.01 0.01 0.01 0.01 0.01 0.01 0.01 0.01 0.01 0.01 0.00 0.01 0.01 0.01 0.01 0.01 0.00 0.01 0.01 0.01 0.01 0.01 0.01 0.01 0.01 0.01 0.01 0.01 0.01 0.01 0.02 0.02 0.03 0.03 0.05 0.04 0.03
0.01 0.01 0.01 0.01 0.00 0.00 0.01 0.00 0.01 0.01 0.01 0.01 0.01 0.02 0.01 0.01 0.01 0.00 0.00 0.01 0.01 0.01 0.01 0.00 0.01 0.01 0.01 0.01 0.01 0.01 0.01 0.01 0.01 0.01 0.01 0.02 0.02 0.02 0.02 0.03 0.04 0.04 0.04 0.03
0.01 0.00 0.01 0.01 0.00 0.01 0.01 0.00 0.00 0.01 0.01 0.02 0.01 0.01 0.01 0.00 0.00 0.00 0.00 0.00 0.01 0.01 0.01 0.01 0.01 0.01 0.01 0.01 0.01 0.01 0.01 0.01 0.01 0.01 0.01 0.01 0.02 0.02 0.02 0.03 0.04 0.04 0.04 0.03
0.01 0.00 0.01 0.01 0.00 0.01 0.01 0.00 0.00 0.01 0.02 0.03 0.01 0.01 0.01 0.00 0.00 0.00 0.00 0.01 0.01 0.01 0.01 0.01 0.01 0.00 0.00 0.00 0.00 0.00 0.01 0.01 0.01 0.01 0.01 0.01 0.01 0.02 0.02 0.02 0.03 0.05 0.04 0.03
0.01 0.01 0.01 0.01 0.01 0.01 0.01 0.01 0.02 0.02 0.03 0.03 0.01 0.01 0.01 0.00 0.00 0.00 0.00 0.01 0.01 0.01 0.01 0.01 0.00 0.00 0.00 0.00 0.00 0.00 0.00 0.01 0.01 0.01 0.01 0.02 0.01 0.01 0.02 0.02 0.02 0.03 0.04 0.04
0.01 0.01 0.01 0.01 0.01 0.02 0.01 0.01 0.02 0.03 0.02 0.02 0.01 0.01 0.01 0.00 0.00 0.00 0.00 0.01 0.01 0.01 0.01 0.01 0.01 0.01 0.00 0.00 0.00 0.00 0.00 0.00 0.00 0.01 0.01 0.02 0.02 0.01 0.01 0.02 0.02 0.02 0.02 0.03
0.02 0.01 0.01 0.01 0.01 0.01 0.01 0.02 0.02 0.03 0.01 0.01 0.00 0.00 0.00 0.00 0.00 0.00 0.00 0.01 0.01 0.02 0.01 0.01 0.01 0.01 0.01 0.00 0.00 0.00 0.00 0.00 0.00 0.01 0.01 0.02 0.02 0.02 0.01 0.01 0.02 0.01 0.01 0.02
0.01 0.02 0.01 0.01 0.01 0.01 0.01 0.01 0.02 0.03 0.03 0.01 0.01 0.00 0.00 0.00 0.00 0.01 0.01 0.01 0.01 0.02 0.02 0.01 0.01 0.01 0.01 0.01 0.00 0.00 0.00 0.00 0.00 0.01 0.01 0.02 0.02 0.02 0.02 0.01 0.01 0.01 0.01 0.01
0.01 0.01 0.01 0.01 0.00 0.01 0.01 0.01 0.02 0.03 0.02 0.02 0.02 0.01 0.00 0.00 0.00 0.01 0.01 0.01 0.01 0.01 0.01 0.01 0.01 0.01 0.01 0.01 0.01 0.00 0.00 0.00 0.00 0.01 0.01 0.02 0.02 0.02 0.02 0.02 0.01 0.01 0.01 0.01
0.01 0.01 0.01 0.01 0.00 0.00 0.00 0.01 0.02 0.03 0.02 0.01 0.02 0.01 0.00 0.00 0.00 0.01 0.01 0.01 0.01 0.01 0.02 0.01 0.01 0.01 0.01 0.01 0.01 0.00 0.00 0.00 0.00 0.01 0.01 0.02 0.03 0.03 0.02 0.02 0.02 0.01 0.01 0.01
0.02 0.02 0.01 0.01 0.01 0.00 0.01 0.00 0.01 0.01 0.02 0.01 0.01 0.01 0.00 0.00 0.00 0.01 0.01 0.01 0.01 0.01 0.02 0.01 0.01 0.01 0.01 0.01 0.00 0.00 0.00 0.00 0.00 0.01 0.01 0.02 0.03 0.03 0.03 0.02 0.02 0.01 0.01 0.01
0.02 0.02 0.01 0.01 0.01 0.01 0.00 0.00 0.00 0.01 0.02 0.01 0.01 0.01 0.00 0.00 0.00 0.00 0.00 0.01 0.01 0.01 0.01 0.01 0.01 0.01 0.01 0.01 0.00 0.00 0.00 0.00 0.01 0.01 0.01 0.02 0.02 0.03 0.03 0.02 0.02 0.02 0.02 0.02
0.01 0.01 0.00 0.00 0.00 0.01 0.00 0.00 0.00 0.01 0.01 0.01 0.01 0.01 0.00 0.00 0.00 0.00 0.00 0.00 0.01 0.01 0.01 0.01 0.01 0.00 0.00 0.00 0.00 0.00 0.00 0.00 0.01 0.01 0.01 0.01 0.02 0.03 0.02 0.02 0.02 0.02 0.02 0.02
0.01 0.01 0.00 0.00 0.00 0.00 0.00 0.00 0.00 0.00 0.00 0.01 0.01 0.00 0.00 0.00 0.00 0.00 0.00 0.00 0.00 0.01 0.01 0.01 0.00 0.00 0.00 0.00 0.00 0.00 0.01 0.01 0.01 0.01 0.02 0.02 0.02 0.02 0.02 0.02 0.02 0.02 0.02 0.02
0.00 0.01 0.01 0.01 0.00 0.01 0.01 0.01 0.00 0.00 0.00 0.00 0.00 0.00 0.00 0.00 0.00 0.00 0.00 0.00 0.00 0.00 0.01 0.00 0.00 0.00 0.00 0.00 0.00 0.01 0.01 0.01 0.01 0.01 0.02 0.02 0.02 0.03 0.03 0.02 0.02 0.02 0.02 0.01
0.01 0.01 0.02 0.01 0.01 0.01 0.00 0.00 0.00 0.00 0.00 0.00 0.00 0.00 0.00 0.00 0.00 0.00 0.00 0.00 0.00 0.00 0.00 0.00 0.00 0.00 0.00 0.00 0.01 0.01 0.01 0.01 0.01 0.01 0.01 0.02 0.02 0.02 0.03 0.03 0.03 0.02 0.02 0.01
0.01 0.02 0.03 0.02 0.01 0.00 0.00 0.00 0.00 0.00 0.00 0.00 0.00 0.00 0.00 0.00 0.00 0.00 0.01 0.00 0.00 0.00 0.00 0.00 0.01 0.01 0.01 0.01 0.01 0.01 0.01 0.01 0.01 0.01 0.01 0.01 0.02 0.02 0.02 0.03 0.03 0.03 0.02 0.01
0.01 0.02 0.03 0.02 0.02 0.01 0.00 0.00 0.00 0.00 0.00 0.00 0.00 0.00 0.00 0.01 0.01 0.01 0.01 0.01 0.00 0.00 0.00 0.01 0.01 0.01 0.01 0.01 0.01 0.01 0.01 0.01 0.01 0.01 0.01 0.01 0.02 0.02 0.02 0.02 0.03 0.03 0.03 0.02
0.01 0.02 0.02 0.02 0.02 0.01 0.00 0.00 0.00 0.00 0.00 0.00 0.00 0.00 0.00 0.01 0.01 0.00 0.00 0.01 0.00 0.00 0.01 0.01 0.01 0.01 0.01 0.01 0.01 0.01 0.01 0.01 0.01 0.01 0.01 0.01 0.02 0.02 0.02 0.02 0.02 0.02 0.03 0.02
0.00 0.01 0.01 0.02 0.02 0.01 0.00 0.00 0.00 0.00 0.00 0.00 0.00 0.00 0.00 0.00 0.00 0.00 0.00 0.01 0.00 0.00 0.01 0.01 0.01 0.01 0.01 0.01 0.01 0.01 0.01 0.01 0.01 0.01 0.02 0.02 0.02 0.02 0.02 0.02 0.01 0.02 0.02 0.01
0.01 0.01 0.01 0.01 0.01 0.00 0.00 0.00 0.00 0.00 0.00 0.00 0.00 0.00 0.00 0.00 0.00 0.00 0.00 0.00 0.00 0.00 0.00 0.01 0.01 0.01 0.01 0.01 0.01 0.01 0.01 0.02 0.02 0.01 0.02 0.02 0.02 0.02 0.02 0.01 0.01 0.01 0.01 0.01
0.01 0.00 0.01 0.01 0.00 0.00 0.00 0.00 0.00 0.00 0.01 0.01 0.00 0.00 0.01 0.01 0.00 0.00 0.00 0.00 0.01 0.01 0.01 0.01 0.01 0.01 0.01 0.01 0.01 0.01 0.01 0.02 0.02 0.01 0.02 0.02 0.02 0.02 0.02 0.01 0.01 0.01 0.01 0.01
0.00 0.01 0.01 0.00 0.00 0.00 0.00 0.00 0.00 0.01 0.01 0.01 0.00 0.00 0.01 0.01 0.01 0.01 0.01 0.01 0.01 0.01 0.01 0.01 0.01 0.01 0.01 0.01 0.01 0.01 0.01 0.01 0.02 0.02 0.02 0.02 0.02 0.02 0.02 0.02 0.02 0.02 0.02 0.02
0.00 0.01 0.01 0.01 0.00 0.01 0.01 0.00 0.00 0.01 0.01 0.01 0.01 0.01 0.00 0.01 0.01 0.01 0.01 0.01 0.01 0.01 0.01 0.01 0.01 0.01 0.01 0.01 0.01 0.01 0.01 0.02 0.02 0.02 0.02 0.02 0.02 0.02 0.02 0.01 0.01 0.01 0.01 0.02
MSLP
1018.39 1018.83 1019.33 1019.87 1020.43 1021.02 1021.61 1022.23 1022.87 1023.55 1024.27 1025.02 1025.81 1026.61 1027.39 1028.14 1028.82 1029.42 1029.92 1030.32 1030.62 1030.82 1030.93 1030.96 1030.91 1030.80 1030.63 1030.39 1030.07 1029.69 1029.24 1028.73 1028.15 1027.54 1026.89 1026.23 1025.56 1024.91 1024.28 1023.66 1023.07 1022.49 1021.91 1021.33
1019.26 1019.70 1020.16 1020.63 1021.08 1021.54 1022.00 1022.50 1023.04 1023.64 1024.32 1025.06 1025.85 1026.66 1027.48 1028.25 1028.96 1029.58 1030.11 1030.52 1030.83 1031.05 1031.17 1031.22 1031.19 1031.10 1030.93 1030.70 1030.39 1030.02 1029.58 1029.07 1028.50 1027.89 1027.24 1026.57 1025.87 1025.17 1024.47 1023.79 1023.12 1022.46 1021.83 1021.21
1020.20 1020.66 1021.10 1021.51 1021.87 1022.21 1022.55 1022.91 1023.34 1023.84 1024.44 1025.12 1025.88 1026.68 1027.49 1028.28 1029.00 1029.64 1030.18 1030.61 1030.94 1031.17 1031.32 1031.38 1031.36 1031.28 1031.12 1030.90 1030.60 1030.25 1029.82 1029.34 1028.80 1028.21 1027.57 1026.88 1026.16 1025.40 1024.64 1023.87 1023.12 1022.40 1021.71 1021.06
1021.13 1021.64 1022.09 1022.47 1022.78 1023.03 1023.26 1023.50 1023.81 1024.19 1024.68 1025.27 1025.95 1026.69 1027.46 1028.21 1028.92 1029.55 1030.10 1030.55 1030.91 1031.16 1031.33 1031.41 1031.40 1031.33 1031.18 1030.96 1030.68 1030.35 1029.95 1029.51 1029.01 1028.44 1027.82 1027.13 1026.39 1025.59 1024.76 1023.92 1023.08 1022.29 1021.54 1020.86
1021.94 1022.52 1023.02 1023.42 1023.72 1023.94 1024.10 1024.26 1024.46 1024.73 1025.09 1025.55 1026.11 1026.74 1027.41 1028.09 1028.75 1029.35 1029.90 1030.36 1030.73 1031.02 1031.21 1031.31 1031.32 1031.25 1031.11 1030.90 1030.64 1030.32 1029.96 1029.55 1029.10 1028.57 1027.98 1027.30 1026.55 1025.71 1024.82 1023.91 1023.00 1022.13 1021.32 1020.61
1022.56 1023.23 1023.81 1024.28 1024.62 1024.86 1025.02 1025.14 1025.27 1025.44 1025.67 1025.99 1026.40 1026.87 1027.40 1027.97 1028.54 1029.09 1029.60 1030.06 1030.45 1030.76 1030.98 1031.11 1031.14 1031.08 1030.95 1030.75 1030.49 1030.19 1029.86 1029.49 1029.07 1028.59 1028.02 1027.37 1026.61 1025.76 1024.82 1023.84 1022.86 1021.93 1021.07 1020.32
1022.92 1023.70 1024.39 1024.97 1025.41 1025.73 1025.95 1026.09 1026.19 1026.29 1026.41 1026.59 1026.83 1027.13 1027.49 1027.90 1028.34 1028.81 1029.27 1029.71 1030.11 1030.44 1030.69 1030.85 1030.91 1030.87 1030.74 1030.54 1030.28 1029.99 1029.67 1029.32 1028.94 1028.49 1027.96 1027.33 1026.58 1025.72 1024.75 1023.73 1022.69 1021.70 1020.79 1020.01
1023.04 1023.92 1024.74 1025.45 1026.04 1026.49 1026.82 1027.02 1027.15 1027.22 1027.26 1027.31 1027.39 1027.50 1027.68 1027.92 1028.22 1028.57 1028.96 1029.36 1029.76 1030.11 1030.39 1030.58 1030.66 1030.64 1030.51 1030.30 1030.04 1029.74 1029.42 1029.09 1028.72 1028.30 1027.81 1027.20 1026.47 1025.61 1024.64 1023.58 1022.50 1021.46 1020.51 1019.70
1022.99 1023.96 1024.90 1025.75 1026.49 1027.10 1027.56 1027.88 1028.06 1028.14 1028.14 1028.09 1028.02 1027.96 1027.95 1028.02 1028.16 1028.39 1028.69 1029.05 1029.43 1029.80 1030.10 1030.32 1030.43 1030.42 1030.29 1030.08 1029.80 1029.49 1029.15 1028.81 1028.45 1028.05 1027.58 1027.00 1026.30 1025.46 1024.49 1023.43 1022.32 1021.25 1020.26 1019.41
1022.91 1023.94 1024.96 1025.93 1026.80 1027.56 1028.16 1028.59 1028.85 1028.96 1028.93 1028.80 1028.62 1028.42 1028.24 1028.14 1028.14 1028.25 1028.46 1028.77 1029.13 1029.50 1029.83 1030.07 1030.20 1030.20 1030.08 1029.86 1029.56 1029.22 1028.87 1028.51 1028.15 1027.75 1027.30 1026.76 1026.10 1025.28 1024.34 1023.29 1022.18 1021.09 1020.07 1019.19
1022.96 1023.99 1025.05 1026.08 1027.04 1027.89 1028.59 1029.10 1029.43 1029.56 1029.52 1029.34 1029.06 1028.74 1028.44 1028.21 1028.08 1028.09 1028.23 1028.49 1028.83 1029.20 1029.54 1029.81 1029.97 1029.98 1029.87 1029.64 1029.32 1028.96 1028.58 1028.20 1027.83 1027.44 1027.01 1026.50 1025.87 1025.11 1024.21 1023.19 1022.10 1021.01 1019.98 1019.07
1023.27 1024.26 1025.28 1026.30 1027.27 1028.14 1028.86 1029.40 1029.74 1029.87 1029.81 1029.58 1029.24 1028.84 1028.45 1028.12 1027.91 1027.85 1027.94 1028.16 1028.49 1028.86 1029.22 1029.51 1029.69 1029.73 1029.63 1029.40 1029.08 1028.70 1028.30 1027.90 1027.52 1027.14 1026.73 1026.25 1025.67 1024.96 1024.11 1023.14 1022.10 1021.02 1019.99 1019.08
1023.90 1024.80 1025.74 1026.66 1027.55 1028.34 1029.00 1029.48 1029.76 1029.85 1029.74 1029.47 1029.08 1028.64 1028.20 1027.83 1027.58 1027.49 1027.56 1027.77 1028.10 1028.48 1028.86 1029.17 1029.37 1029.43 1029.35 1029.13 1028.81 1028.43 1028.02 1027.62 1027.24 1026.86 1026.46 1026.02 1025.49 1024.84 1024.06 1023.16 1022.16 1021.13 1020.12 1019.20
1024.84 1025.62 1026.40 1027.17 1027.88 1028.50 1029.00 1029.34 1029.50 1029.48 1029.30 1028.98 1028.57 1028.12 1027.68 1027.33 1027.10 1027.02 1027.10 1027.32 1027.66 1028.06 1028.45 1028.79 1029.01 1029.10 1029.04 1028.84 1028.54 1028.16 1027.76 1027.36 1026.98 1026.61 1026.24 1025.83 1025.35 1024.76 1024.05 1023.22 1022.30 1021.32 1020.35 1019.44
1025.98 1026.62 1027.22 1027.77 1028.24 1028.62 1028.88 1029.00 1028.98 1028.83 1028.55 1028.19 1027.77 1027.35 1026.96 1026.67 1026.50 1026.48 1026.61 1026.87 1027.24 1027.65 1028.06 1028.41 1028.65 1028.75 1028.72 1028.54 1028.26 1027.91 1027.52 1027.13 1026.76 1026.40 1026.05 1025.67 1025.23 1024.70 1024.07 1023.32 1022.47 1021.56 1020.64 1019.76
1027.13 1027.63 1028.05 1028.36 1028.56 1028.65 1028.62 1028.49 1028.26 1027.96 1027.59 1027.19 1026.80 1026.44 1026.16 1025.97 1025.91 1025.99 1026.19 1026.50 1026.90 1027.32 1027.73 1028.08 1028.32 1028.44 1028.42 1028.26 1028.01 1027.68 1027.31 1026.94 1026.57 1026.23 1025.89 1025.54 1025.14 1024.67 1024.10 1023.42 1022.66 1021.82 1020.97 1020.13
1028.09 1028.48 1028.71 1028.79 1028.73 1028.53 1028.23 1027.85 1027.42 1026.98 1026.54 1026.14 1025.81 1025.56 1025.41 1025.37 1025.45 1025.64 1025.93 1026.30 1026.71 1027.14 1027.54 1027.86 1028.08 1028.19 1028.16 1028.02 1027.78 1027.48 1027.13 1026.77 1026.42 1026.08 1025.76 1025.42 1025.05 1024.62 1024.11 1023.51 1022.83 1022.08 1021.29 1020.52
1028.65 1028.95 1029.04 1028.93 1028.65 1028.22 1027.69 1027.11 1026.53 1025.99 1025.54 1025.18 1024.95 1024.84 1024.86 1024.99 1025.22 1025.53 1025.91 1026.32 1026.74 1027.14 1027.49 1027.76 1027.94 1028.01 1027.97 1027.82 1027.59 1027.30 1026.96 1026.62 1026.28 1025.95 1025.63 1025.30 1024.95 1024.56 1024.10 1023.57 1022.96 1022.29 1021.59 1020.88
1028.66 1028.91 1028.91 1028.68 1028.25 1027.66 1026.99 1026.29 1025.64 1025.09 1024.67 1024.42 1024.33 1024.39 1024.59 1024.89 1025.27 1025.69 1026.13 1026.55 1026.95 1027.30 1027.57 1027.77 1027.87 1027.89 1027.81 1027.64 1027.40 1027.12 1026.79 1026.46 1026.12 1025.80 1025.48 1025.16 1024.83 1024.47 1024.05 1023.58 1023.04 1022.45 1021.82 1021.19
1028.08 1028.32 1028.29 1028.00 1027.50 1026.86 1026.14 1025.42 1024.79 1024.30 1024.00 1023.89 1023.97 1024.22 1024.60 1025.06 1025.56 1026.06 1026.53 1026.94 1027.28 1027.54 1027.72 1027.82 1027.83 1027.77 1027.64 1027.44 1027.20 1026.91 1026.60 1026.27 1025.95 1025.63 1025.31 1025.00 1024.67 1024.33 1023.95 1023.53 1023.05 1022.54 1021.98 1021.42
1026.97 1027.22 1027.20 1026.92 1026.44 1025.82 1025.15 1024.52 1024.00 1023.65 1023.51 1023.58 1023.86 1024.28 1024.82 1025.41 1026.00 1026.54 1027.00 1027.36 1027.62 1027.78 1027.84 1027.82 1027.74 1027.60 1027.42 1027.19 1026.94 1026.66 1026.36 1026.05 1025.73 1025.42 1025.11 1024.80 1024.48 1024.16 1023.80 1023.42 1023.00 1022.54 1022.05 1021.55
1025.48 1025.74 1025.75 1025.53 1025.13 1024.62 1024.08 1023.60 1023.26 1023.11 1023.17 1023.43 1023.88 1024.47 1025.13 1025.80 1026.43 1026.97 1027.39 1027.67 1027.83 1027.88 1027.83 1027.71 1027.54 1027.34 1027.11 1026.87 1026.62 1026.35 1026.07 1025.78 1025.48 1025.18 1024.88 1024.57 1024.27 1023.95 1023.61 1023.26 1022.87 1022.46 1022.02 1021.57
1023.78 1024.04 1024.09 1023.95 1023.67 1023.31 1022.96 1022.69 1022.57 1022.63 1022.89 1023.34 1023.95 1024.65 1025.39 1026.10 1026.72 1027.22 1027.57 1027.77 1027.82 1027.77 1027.62 1027.42 1027.19 1026.95 1026.71 1026.47 1026.23 1025.99 1025.74 1025.48 1025.20 1024.92 1024.63 1024.33 1024.03 1023.71 1023.39 1023.05 1022.68 1022.30 1021.89 1021.47
1022.04 1022.28 1022.37 1022.31 1022.17 1021.99 1021.85 1021.80 1021.91 1022.18 1022.63 1023.24 1023.95 1024.73 1025.49 1026.19 1026.77 1027.20 1027.46 1027.58 1027.55 1027.41 1027.20 1026.96 1026.70 1026.45 1026.22 1026.01 1025.80 1025.60 1025.39 1025.16 1024.92 1024.66 1024.38 1024.08 1023.78 1023.46 1023.13 1022.79 1022.43 1022.05 1021.65 1021.25
1020.40 1020.61 1020.71 1020.74 1020.73 1020.73 1020.79 1020.97 1021.28 1021.74 1022.34 1023.06 1023.84 1024.63 1025.38 1026.03 1026.54 1026.88 1027.07 1027.11 1027.02 1026.84 1026.61 1026.36 1026.12 1025.90 1025.70 1025.53 1025.38 1025.22 1025.05 1024.86 1024.64 1024.40 1024.13 1023.83 1023.52 1023.19 1022.84 1022.48 1022.11 1021.72 1021.32 1020.91
1018.94 1019.09 1019.20 1019.30 1019.42 1019.59 1019.84 1020.21 1020.70 1021.31 1022.02 1022.80 1023.60 1024.37 1025.06 1025.63 1026.06 1026.33 1026.45 1026.44 1026.32 1026.14 1025.93 1025.71 1025.51 1025.34 1025.20 1025.09 1024.98 1024.87 1024.74 1024.57 1024.38 1024.14 1023.87 1023.56 1023.23 1022.88 1022.51 1022.13 1021.73 1021.32 1020.90 1020.48
Thickness
5578 5570 5564 5565 5567 5568 5568 5566 5565 5569 5569 5564 5562 5564 5563 5565 5563 5559 5558 5556 5552 5550 5549 5548 5546 5546 5545 5543 5543 5544 5545 5546 5547 5548 5548 5549 5550 5551 5554 5555 5557 5558 5560 5561
5563 5556 5561 5563 5562 5559 5558 5553 5554 5558 5560 5556 5554 5555 5558 5557 5554 5551 5549 5546 5544 5541 5539 5538 5536 5534 5533 5532 5532 5532 5532 5533 5534 5535 5536 5537 5538 5539 5540 5542 5544 5546 5547 5548
5552 5550 5554 5553 5549 5546 5546 5541 5541 5542 5545 5547 5542 5543 5547 5548 5546 5543 5540 5538 5537 5534 5530 5528 5526 5524 5522 5521 5520 5521 5521 5522 5522 5523 5524 5525 5525 5526 5527 5529 5531 5534 5536 5537
5543 5545 5543 5540 5538 5536 5532 5536 5534 5531 5524 5525 5532 5520 5537 5538 5534 5533 5530 5527 5526 5525 5522 5518 5516 5513 5512 5510 5510 5510 5510 5510 5511 5511 5512 5512 5512 5513 5515 5516 5518 5521 5523 5525
5533 5535 5532 5529 5529 5528 5524 5527 5525 5522 5517 5512 5521 5510 5524 5529 5524 5522 5520 5519 5518 5515 5512 5508 5506 5504 5502 5501 5500 5499 5499 5499 5499 5500 5500 5501 5501 5502 5503 5505 5507 5509 5511 5513
5527 5529 5525 5521 5521 5520 5517 5516 5515 5513 5506 5495 5513 5507 5515 5518 5520 5517 5513 5510 5508 5505 5502 5498 5496 5494 5493 5491 5489 5488 5488 5488 5488 5488 5489 5489 5490 5490 5491 5493 5495 5497 5500 5502
5520 5521 5517 5515 5509 5508 5505 5495 5489 5490 5487 5495 5513 5505 5506 5512 5514 5510 5505 5501 5498 5494 5490 5487 5485 5484 5483 5481 5480 5479 5478 5477 5477 5478 5478 5478 5478 5479 5480 5481 5483 5485 5488 5490
5510 5507 5509 5507 5502 5495 5495 5492 5479 5478 5486 5497 5502 5499 5503 5505 5502 5501 5497 5492 5488 5484 5480 5478 5476 5474 5473 5472 5470 5468 5467 5467 5467 5467 5467 5467 5468 5468 5470 5471 5473 5475 5478 5480
5499 5499 5502 5501 5498 5494 5490 5484 5487 5474 5472 5470 5491 5498 5495 5495 5490 5488 5485 5480 5476 5473 5470 5467 5466 5464 5463 5461 5459 5458 5457 5456 5456 5456 5456 5457 5457 5458 5459 5461 5463 5465 5468 5470
5490 5483 5491 5490 5489 5485 5484 5482 5472 5465 5462 5469 5490 5492 5483 5478 5476 5474 5471 5467 5465 5462 5459 5457 5455 5454 5452 5450 5448 5447 5445 5444 5444 5444 5445 5446 5446 5447 5448 5450 5452 5455 5457 5460
5483 5471 5477 5479 5474 5475 5473 5470 5466 5461 5462 5459 5463 5473 5482 5475 5471 5465 5461 5458 5454 5450 5447 5445 5444 5442 5441 5439 5437 5435 5434 5432 5432 5432 5433 5434 5435 5436 5437 5439 5441 5444 5446 5449
5475 5466 5463 5472 5475 5473 5470 5466 5456 5443 5444 5450 5449 5458 5472 5467 5463 5458 5452 5448 5444 5440 5437 5435 5433 5431 5429 5427 5425 5424 5422 5421 5421 5421 5422 5424 5425 5426 5427 5429 5431 5434 5436 5439
5462 5453 5450 5457 5457 5457 5455 5457 5451 5442 5437 5438 5440 5450 5462 5457 5451 5447 5441 5437 5433 5430 5427 5425 5423 5420 5418 5415 5414 5413 5412 5411 5412 5412 5413 5414 5415 5416 5418 5420 5422 5424 5426 5429
5457 5443 5443 5450 5453 5447 5442 5445 5440 5431 5425 5432 5443 5446 5449 5445 5441 5437 5432 5427 5423 5420 5417 5415 5412 5409 5407 5405 5403 5402 5402 5402 5402 5403 5403 5404 5406 5407 5409 5410 5412 5414 5417 5420
5442 5435 5435 5439 5444 5440 5438 5437 5434 5425 5427 5426 5438 5438 5440 5436 5431 5427 5422 5417 5414 5411 5408 5405 5402 5400 5397 5395 5394 5393 5393 5393 5393 5393 5394 5395 5397 5399 5400 5401 5403 5405 5407 5410
5428 5426 5423 5426 5435 5431 5429 5432 5430 5426 5426 5426 5428 5429 5434 5428 5423 5418 5413 5409 5405 5402 5399 5395 5393 5390 5388 5386 5385 5384 5384 5384 5384 5384 5384 5386 5388 5389 5391 5392 5394 5396 5398 5400
5419 5414 5416 5424 5422 5418 5420 5427 5425 5424 5423 5420 5419 5422 5424 5419 5415 5408 5404 5401 5397 5392 5389 5386 5383 5380 5378 5377 5376 5375 5376 5376 5376 5375 5375 5377 5379 5380 5381 5383 5385 5387 5389 5391
5408 5406 5406 5409 5408 5407 5432 5430 5427 5421 5419 5416 5414 5414 5412 5407 5403 5399 5395 5391 5387 5384 5380 5377 5374 5372 5370 5369 5368 5368 5368 5367 5367 5367 5368 5369 5370 5371 5373 5374 5376 5378 5380 5382
5406 5402 5402 5401 5403 5419 5424 5421 5414 5409 5408 5409 5405 5403 5399 5395 5392 5390 5388 5384 5379 5375 5372 5369 5366 5364 5362 5360 5360 5360 5360 5360 5360 5360 5361 5361 5362 5363 5364 5366 5368 5370 5372 5373
5395 5392 5392 5398 5398 5407 5420 5409 5407 5403 5399 5402 5397 5392 5388 5385 5379 5382 5380 5375 5371 5368 5365 5361 5359 5356 5354 5353 5353 5352 5352 5352 5352 5353 5354 5354 5355 5356 5357 5358 5360 5362 5364 5365
5387 5387 5387 5391 5394 5406 5405 5397 5397 5394 5397 5394 5390 5384 5379 5375 5371 5371 5370 5366 5363 5361 5358 5355 5352 5350 5348 5347 5346 5346 5346 5345 5346 5346 5347 5347 5348 5349 5350 5352 5353 5355 5356 5358
5390 5389 5387 5388 5389 5399 5393 5389 5387 5389 5389 5386 5382 5377 5372 5368 5366 5363 5361 5358 5356 5353 5351 5348 5346 5344 5343 5342 5341 5340 5339 5339 5339 5339 5340 5341 5341 5342 5344 5344 5346 5347 5348 5349
5391 5390 5389 5388 5393 5395 5387 5385 5384 5383 5380 5378 5374 5370 5365 5361 5359 5356 5354 5351 5349 5346 5344 5343 5340 5339 5338 5337 5336 5335 5334 5333 5333 5333 5333 5334 5335 5335 5336 5337 5338 5338 5339 5340
5387 5386 5384 5382 5387 5389 5385 5383 5380 5376 5373 5370 5366 5362 5358 5354 5351 5348 5346 5344 5342 5340 5337 5336 5335 5334 5333 5332 5332 5330 5329 5328 5327 5327 5327 5328 5328 5328 5329 5329 5330 5331 5331 5332
5385 5377 5375 5373 5379 5381 5381 5376 5373 5369 5366 5362 5359 5355 5351 5347 5344 5341 5339 5338 5335 5334 5331 5329 5328 5327 5328 5327 5326 5326 5324 5322 5321 5321 5322 5322 5322 5322 5322 5322 5322 5323 5324 5325
5378 5371 5369 5374 5377 5372 5373 5371 5367 5362 5358 5355 5351 5347 5345 5342 5339 5336 5334 5332 5329 5327 5325 5324 5323 5322 5322 5322 5321 5321 5319 5318 5316 5316 5316 5316 5316 5316 5316 5316 5316 5316 5317 5319